Time,TemperatureF,DewpointF,PressureIn,WindDirection,WindDirectionDegrees,WindSpeedMPH,WindSpeedGustMPH,Humidity,HourlyPrecipIn,Conditions,Clouds,dailyrainin,SolarRadiationWatts/m^2,SoftwareType,DateUTC
2013-02-03 00:11:00,58.0,41.0,-100.00,East,84,16.0,25.0,53,0.00,,,0.00,0.000000,,2013-02-03 08:11:00,
2013-02-03 00:22:00,58.0,41.0,-100.00,East,84,16.0,25.0,53,0.00,,,0.00,0.000000,,2013-02-03 08:22:00,
2013-02-03 00:32:00,58.0,41.0,-100.00,East,84,16.0,25.0,53,0.00,,,0.00,0.000000,,2013-02-03 08:32:00,
2013-02-03 00:41:00,58.0,41.0,-100.00,East,84,16.0,25.0,53,0.00,,,0.00,0.000000,,2013-02-03 08:41:00,
2013-02-03 01:11:00,56.0,42.0,-100.00,East,91,17.0,25.0,60,0.00,,,0.00,1.000000,,2013-02-03 09:11:00,
2013-02-03 01:21:00,56.0,42.0,-100.00,East,91,17.0,25.0,60,0.00,,,0.00,1.000000,,2013-02-03 09:21:00,
2013-02-03 01:31:00,56.0,42.0,-100.00,East,91,17.0,25.0,60,0.00,,,0.00,1.000000,,2013-02-03 09:31:00,
2013-02-03 01:41:00,56.0,42.0,-100.00,East,91,17.0,25.0,60,0.00,,,0.00,1.000000,,2013-02-03 09:41:00,
2013-02-03 02:11:00,57.0,40.0,-100.00,East,82,13.0,22.0,52,0.00,,,0.00,0.000000,,2013-02-03 10:11:00,
2013-02-03 02:21:00,57.0,40.0,-100.00,East,82,13.0,22.0,52,0.00,,,0.00,0.000000,,2013-02-03 10:21:00,
2013-02-03 02:31:00,57.0,40.0,-100.00,East,82,13.0,22.0,52,0.00,,,0.00,0.000000,,2013-02-03 10:31:00,
2013-02-03 02:41:00,57.0,40.0,-100.00,East,82,13.0,22.0,52,0.00,,,0.00,0.000000,,2013-02-03 10:41:00,
2013-02-03 03:11:00,58.0,41.0,-100.00,East,86,14.0,18.0,53,0.00,,,0.00,0.000000,,2013-02-03 11:11:00,
2013-02-03 03:22:00,58.0,41.0,-100.00,East,86,14.0,18.0,53,0.00,,,0.00,0.000000,,2013-02-03 11:22:00,
2013-02-03 03:31:00,58.0,41.0,-100.00,East,86,14.0,18.0,53,0.00,,,0.00,0.000000,,2013-02-03 11:31:00,
2013-02-03 03:41:00,58.0,41.0,-100.00,East,86,14.0,18.0,53,0.00,,,0.00,0.000000,,2013-02-03 11:41:00,
2013-02-03 04:11:00,56.0,42.0,-100.00,East,96,15.0,19.0,59,0.00,,,0.00,1.000000,,2013-02-03 12:11:00,
2013-02-03 04:22:00,56.0,42.0,-100.00,East,96,15.0,19.0,59,0.00,,,0.00,1.000000,,2013-02-03 12:22:00,
2013-02-03 04:32:00,56.0,42.0,-100.00,East,96,15.0,19.0,59,0.00,,,0.00,1.000000,,2013-02-03 12:32:00,
2013-02-03 04:42:00,56.0,42.0,-100.00,East,96,15.0,19.0,59,0.00,,,0.00,1.000000,,2013-02-03 12:42:00,
2013-02-03 05:11:00,55.0,38.0,-100.00,East,83,13.0,19.0,52,0.00,,,0.00,0.000000,,2013-02-03 13:11:00,
2013-02-03 05:21:00,55.0,38.0,-100.00,East,83,13.0,19.0,52,0.00,,,0.00,0.000000,,2013-02-03 13:21:00,
2013-02-03 05:32:00,55.0,38.0,-100.00,East,83,13.0,19.0,52,0.00,,,0.00,0.000000,,2013-02-03 13:32:00,
2013-02-03 05:41:00,55.0,38.0,-100.00,East,83,13.0,19.0,52,0.00,,,0.00,0.000000,,2013-02-03 13:41:00,
2013-02-03 06:11:00,57.0,38.0,-100.00,East,87,16.0,19.0,49,0.00,,,0.00,0.000000,,2013-02-03 14:11:00,
2013-02-03 06:21:00,57.0,38.0,-100.00,East,87,16.0,19.0,49,0.00,,,0.00,0.000000,,2013-02-03 14:21:00,
2013-02-03 07:11:00,58.0,37.0,-100.00,East,93,17.0,22.0,46,-99.99,,,0.00,1.000000,,2013-02-03 15:11:00,
2013-02-03 07:21:00,58.0,37.0,-100.00,East,93,17.0,22.0,46,-99.99,,,0.00,1.000000,,2013-02-03 15:21:00,
2013-02-03 07:32:00,58.0,37.0,-100.00,East,93,17.0,22.0,46,-99.99,,,0.00,1.000000,,2013-02-03 15:32:00,
2013-02-03 08:11:00,58.0,38.0,-100.00,East,92,15.0,20.0,47,-99.99,,,0.00,36.000000,,2013-02-03 16:11:00,
2013-02-03 08:21:00,58.0,38.0,-100.00,East,92,15.0,20.0,47,-99.99,,,0.00,36.000000,,2013-02-03 16:21:00,
2013-02-03 09:11:00,59.0,38.0,-100.00,East,89,14.0,21.0,46,0.00,,,0.00,236.000000,,2013-02-03 17:11:00,
2013-02-03 09:21:00,59.0,38.0,-100.00,East,89,14.0,21.0,46,0.00,,,0.00,236.000000,,2013-02-03 17:21:00,
2013-02-03 09:31:00,59.0,38.0,-100.00,East,89,14.0,21.0,46,0.00,,,0.00,236.000000,,2013-02-03 17:31:00,
2013-02-03 09:41:00,59.0,38.0,-100.00,East,89,14.0,21.0,46,0.00,,,0.00,236.000000,,2013-02-03 17:41:00,
2013-02-03 10:11:00,61.0,40.0,-100.00,ENE,67,12.0,19.0,46,0.00,,,0.00,409.000000,,2013-02-03 18:11:00,
2013-02-03 10:23:00,61.0,40.0,-100.00,ENE,67,12.0,19.0,46,0.00,,,0.00,409.000000,,2013-02-03 18:23:00,
2013-02-03 10:32:00,61.0,40.0,-100.00,ENE,67,12.0,19.0,46,0.00,,,0.00,409.000000,,2013-02-03 18:32:00,
2013-02-03 10:41:00,61.0,40.0,-100.00,ENE,67,12.0,19.0,46,0.00,,,0.00,409.000000,,2013-02-03 18:41:00,
2013-02-03 11:11:00,63.0,40.0,-100.00,ENE,73,10.0,14.0,42,0.00,,,0.00,544.000000,,2013-02-03 19:11:00,
2013-02-03 11:21:00,63.0,40.0,-100.00,ENE,73,10.0,14.0,42,0.00,,,0.00,544.000000,,2013-02-03 19:21:00,
2013-02-03 11:31:00,63.0,40.0,-100.00,ENE,73,10.0,14.0,42,0.00,,,0.00,544.000000,,2013-02-03 19:31:00,
2013-02-03 11:41:00,63.0,40.0,-100.00,ENE,73,10.0,14.0,42,0.00,,,0.00,544.000000,,2013-02-03 19:41:00,
2013-02-03 12:12:00,67.0,38.0,-100.00,ENE,60,2.0,10.0,35,0.00,,,0.00,622.000000,,2013-02-03 20:12:00,
2013-02-03 12:21:00,67.0,38.0,-100.00,ENE,60,2.0,10.0,35,0.00,,,0.00,622.000000,,2013-02-03 20:21:00,
2013-02-03 12:32:00,67.0,38.0,-100.00,ENE,60,2.0,10.0,35,0.00,,,0.00,622.000000,,2013-02-03 20:32:00,
2013-02-03 12:42:00,67.0,38.0,-100.00,ENE,60,2.0,10.0,35,0.00,,,0.00,622.000000,,2013-02-03 20:42:00,
2013-02-03 13:11:00,69.0,42.0,-100.00,West,280,8.0,13.0,37,0.00,,,0.00,650.000000,,2013-02-03 21:11:00,
2013-02-03 13:21:00,69.0,42.0,-100.00,West,280,8.0,13.0,37,0.00,,,0.00,650.000000,,2013-02-03 21:21:00,
2013-02-03 13:32:00,69.0,42.0,-100.00,West,280,8.0,13.0,37,0.00,,,0.00,650.000000,,2013-02-03 21:32:00,
2013-02-03 13:42:00,69.0,42.0,-100.00,West,280,8.0,13.0,37,0.00,,,0.00,650.000000,,2013-02-03 21:42:00,
2013-02-03 14:11:00,69.0,42.0,-100.00,West,277,11.0,15.0,38,0.00,,,0.00,563.000000,,2013-02-03 22:11:00,
2013-02-03 14:21:00,69.0,42.0,-100.00,West,277,11.0,15.0,38,0.00,,,0.00,563.000000,,2013-02-03 22:21:00,
2013-02-03 14:32:00,69.0,42.0,-100.00,West,277,11.0,15.0,38,0.00,,,0.00,563.000000,,2013-02-03 22:32:00,
2013-02-03 14:41:00,69.0,42.0,-100.00,West,277,11.0,15.0,38,0.00,,,0.00,563.000000,,2013-02-03 22:41:00,
2013-02-03 15:12:00,68.0,45.0,-100.00,West,273,11.0,16.0,43,0.00,,,0.00,471.000000,,2013-02-03 23:12:00,
2013-02-03 15:22:00,68.0,45.0,-100.00,West,273,11.0,16.0,43,0.00,,,0.00,471.000000,,2013-02-03 23:22:00,
2013-02-03 15:32:00,68.0,45.0,-100.00,West,273,11.0,16.0,43,0.00,,,0.00,471.000000,,2013-02-03 23:32:00,
2013-02-03 15:41:00,68.0,45.0,-100.00,West,273,11.0,16.0,43,0.00,,,0.00,471.000000,,2013-02-03 23:41:00,
2013-02-03 16:11:00,67.0,44.0,-100.00,West,267,11.0,15.0,43,0.00,,,0.00,334.000000,,2013-02-04 00:11:00,
2013-02-03 16:22:00,67.0,44.0,-100.00,West,267,11.0,15.0,43,0.00,,,0.00,334.000000,,2013-02-04 00:22:00,
2013-02-03 16:31:00,67.0,44.0,-100.00,West,267,11.0,15.0,43,0.00,,,0.00,334.000000,,2013-02-04 00:31:00,
2013-02-03 16:41:00,67.0,44.0,-100.00,West,267,11.0,15.0,43,0.00,,,0.00,334.000000,,2013-02-04 00:41:00,
2013-02-03 17:11:00,65.0,43.0,-100.00,West,266,7.0,13.0,45,0.00,,,0.00,182.000000,,2013-02-04 01:11:00,
2013-02-03 17:21:00,65.0,43.0,-100.00,West,266,7.0,13.0,45,0.00,,,0.00,182.000000,,2013-02-04 01:21:00,
2013-02-03 17:31:00,65.0,43.0,-100.00,West,266,7.0,13.0,45,0.00,,,0.00,182.000000,,2013-02-04 01:31:00,
2013-02-03 17:41:00,65.0,43.0,-100.00,West,266,7.0,13.0,45,0.00,,,0.00,182.000000,,2013-02-04 01:41:00,
2013-02-03 18:11:00,61.0,41.0,-100.00,WSW,241,8.0,10.0,47,0.00,,,0.00,22.000000,,2013-02-04 02:11:00,
2013-02-03 18:21:00,61.0,41.0,-100.00,WSW,241,8.0,10.0,47,0.00,,,0.00,22.000000,,2013-02-04 02:21:00,
2013-02-03 18:31:00,61.0,41.0,-100.00,WSW,241,8.0,10.0,47,0.00,,,0.00,22.000000,,2013-02-04 02:31:00,
2013-02-03 18:41:00,61.0,41.0,-100.00,WSW,241,8.0,10.0,47,0.00,,,0.00,22.000000,,2013-02-04 02:41:00,
2013-02-03 19:11:00,61.0,42.0,-100.00,WSW,249,2.0,9.0,49,0.00,,,0.00,0.000000,,2013-02-04 03:11:00,
2013-02-03 19:21:00,61.0,42.0,-100.00,WSW,249,2.0,9.0,49,0.00,,,0.00,0.000000,,2013-02-04 03:21:00,
2013-02-03 19:31:00,61.0,42.0,-100.00,WSW,249,2.0,9.0,49,0.00,,,0.00,0.000000,,2013-02-04 03:31:00,
2013-02-03 19:41:00,61.0,42.0,-100.00,WSW,249,2.0,9.0,49,0.00,,,0.00,0.000000,,2013-02-04 03:41:00,
2013-02-03 20:11:00,62.0,40.0,-100.00,East,90,6.0,11.0,45,0.00,,,0.00,0.000000,,2013-02-04 04:11:00,
2013-02-03 20:21:00,62.0,40.0,-100.00,East,90,6.0,11.0,45,0.00,,,0.00,0.000000,,2013-02-04 04:21:00,
2013-02-03 20:31:00,62.0,40.0,-100.00,East,90,6.0,11.0,45,0.00,,,0.00,0.000000,,2013-02-04 04:31:00,
2013-02-03 20:41:00,62.0,40.0,-100.00,East,90,6.0,11.0,45,0.00,,,0.00,0.000000,,2013-02-04 04:41:00,
2013-02-03 21:11:00,58.0,39.0,-100.00,East,92,9.0,14.0,49,-99.99,,,0.00,0.000000,,2013-02-04 05:11:00,
2013-02-03 21:22:00,58.0,39.0,-100.00,East,92,9.0,14.0,49,-99.99,,,0.00,0.000000,,2013-02-04 05:22:00,
2013-02-03 21:33:00,58.0,39.0,-100.00,East,92,9.0,14.0,49,-99.99,,,0.00,0.000000,,2013-02-04 05:33:00,
2013-02-03 21:41:00,58.0,39.0,-100.00,East,92,9.0,14.0,49,-99.99,,,0.00,0.000000,,2013-02-04 05:41:00,
2013-02-03 22:11:00,60.0,35.0,-100.00,East,92,13.0,15.0,39,0.00,,,0.00,0.000000,,2013-02-04 06:11:00,
2013-02-03 22:21:00,60.0,35.0,-100.00,East,92,13.0,15.0,39,0.00,,,0.00,0.000000,,2013-02-04 06:21:00,
2013-02-03 23:11:00,56.0,30.0,-100.00,ENE,77,8.0,16.0,37,-99.99,,,0.00,0.000000,,2013-02-04 07:11:00,
2013-02-03 23:21:00,56.0,30.0,-100.00,ENE,77,8.0,16.0,37,-99.99,,,0.00,0.000000,,2013-02-04 07:21:00,
2013-02-03 23:31:00,56.0,30.0,-100.00,ENE,77,8.0,16.0,37,-99.99,,,0.00,0.000000,,2013-02-04 07:31:00,
2013-02-03 23:41:00,56.0,30.0,-100.00,ENE,77,8.0,16.0,37,-99.99,,,0.00,0.000000,,2013-02-04 07:41:00,